When you browse on this site, cookies collect data to enhance your experience and personalize the content and advertising you see.
Visit our Privacy Policy to learn more. By continuing to use the site, you agree to this use of cookies and data.
  • In Netherlands
  • List of Countries
  • For 7 days
  • Water Temperature
  • Satellite Maps
  • Weather Map
  • Weather Widgets
  • user-avatar
    Login

    Hourly Weather Baraki Barak

    Today, 21 May, Tuesday

    Time Temperature Precipitation Wind Pressure Humidity
    00:00 +19°C° 0 mm 2 mps 601 mmHg 34%
    01:00 +18°C° 0 mm 2 mps 600 mmHg 36%
    02:00 +18°C° 0 mm 2 mps 600 mmHg 37%
    03:00 +17°C° 0 mm 2 mps 600 mmHg 40%
    04:00 +16°C° 0 mm 1 mps 599 mmHg 42%
    05:00 +16°C° 0 mm 1 mps 599 mmHg 45%
    06:00 +18°C° 0 mm 1 mps 599 mmHg 41%
    07:00 +19°C° 0 mm 1 mps 600 mmHg 36%
    08:00 +19°C° 0 mm 1 mps 600 mmHg 31%
    09:00 +21°C° 0 mm 1 mps 601 mmHg 28%
    10:00 +22°C° 0 mm 1 mps 601 mmHg 26%
    11:00 +23°C° 0 mm 1 mps 601 mmHg 24%
    12:00 +24°C° 0 mm 1 mps 601 mmHg 23%
    13:00 +25°C° 0 mm 1 mps 601 mmHg 21%
    14:00 +26°C° 0 mm 2 mps 601 mmHg 20%
    15:00 +25°C° 0.1 mm 2 mps 601 mmHg 22%
    16:00 +25°C° 0.1 mm 2 mps 601 mmHg 24%
    17:00 +24°C° 0.1 mm 3 mps 601 mmHg 26%
    18:00 +22°C° 0 mm 3 mps 601 mmHg 29%
    19:00 +21°C° 0 mm 3 mps 601 mmHg 33%
    20:00 +20°C° 0 mm 3 mps 600 mmHg 36%
    21:00 +20°C° 0 mm 2 mps 600 mmHg 38%
    22:00 +19°C° 0 mm 2 mps 600 mmHg 40%
    23:00 +20°C° 0 mm 1 mps 600 mmHg 41%

    Tomorrow, 22 May, Wednesday

    Time Temperature Precipitation Wind Pressure Humidity
    00:00 +19°C° 0 mm 1 mps 600 mmHg 43%
    01:00 +19°C° 0 mm 1 mps 600 mmHg 45%
    02:00 +17°C° 0 mm 2 mps 599 mmHg 46%
    03:00 +18°C° 0 mm 1 mps 599 mmHg 48%
    04:00 +16°C° 0 mm 1 mps 599 mmHg 50%
    05:00 +16°C° 0 mm 1 mps 598 mmHg 51%
    06:00 +16°C° 0 mm 1 mps 599 mmHg 48%
    07:00 +18°C° 0 mm 1 mps 599 mmHg 44%
    08:00 +19°C° 0 mm 1 mps 599 mmHg 41%
    09:00 +20°C° 0 mm 1 mps 599 mmHg 38%
    10:00 +21°C° 0 mm 1 mps 600 mmHg 36%
    11:00 +22°C° 0 mm 1 mps 600 mmHg 34%
    12:00 +23°C° 0 mm 2 mps 600 mmHg 32%
    13:00 +24°C° 0 mm 2 mps 600 mmHg 30%
    14:00 +25°C° 0 mm 2 mps 600 mmHg 28%
    15:00 +24°C° 0.1 mm 3 mps 600 mmHg 29%
    16:00 +24°C° 0.1 mm 3 mps 599 mmHg 31%
    17:00 +24°C° 0.1 mm 3 mps 599 mmHg 33%
    18:00 +22°C° 0.3 mm 3 mps 599 mmHg 38%
    19:00 +20°C° 0.3 mm 3 mps 599 mmHg 43%
    20:00 +19°C° 0.3 mm 2 mps 599 mmHg 49%
    21:00 +19°C° 0.3 mm 2 mps 599 mmHg 50%
    22:00 +18°C° 0.3 mm 2 mps 599 mmHg 51%
    23:00 +18°C° 0.3 mm 2 mps 599 mmHg 52%

    Day after tomorrow, 23 May, Thursday

    Time Temperature Precipitation Wind Pressure Humidity
    00:00 +17°C° 0.3 mm 3 mps 598 mmHg 53%
    01:00 +17°C° 0.3 mm 3 mps 598 mmHg 53%
    02:00 +16°C° 0.3 mm 3 mps 597 mmHg 53%
    03:00 +16°C° 0.2 mm 3 mps 597 mmHg 55%
    04:00 +14°C° 0.2 mm 3 mps 597 mmHg 56%
    05:00 +15°C° 0.2 mm 2 mps 596 mmHg 57%
    06:00 +15°C° 0 mm 2 mps 596 mmHg 57%
    07:00 +15°C° 0 mm 2 mps 597 mmHg 57%
    08:00 +15°C° 0 mm 2 mps 597 mmHg 56%
    09:00 +17°C° 0 mm 2 mps 597 mmHg 53%
    10:00 +19°C° 0 mm 1 mps 598 mmHg 50%
    11:00 +20°C° 0 mm 1 mps 598 mmHg 47%
    12:00 +21°C° 0.1 mm 1 mps 598 mmHg 43%
    13:00 +22°C° 0.1 mm 1 mps 598 mmHg 39%
    14:00 +23°C° 0.1 mm 2 mps 598 mmHg 35%
    15:00 +23°C° 0.1 mm 2 mps 598 mmHg 34%
    16:00 +22°C° 0.1 mm 3 mps 598 mmHg 34%
    17:00 +24°C° 0.1 mm 3 mps 598 mmHg 33%
    18:00 +21°C° 0.4 mm 3 mps 598 mmHg 40%
    19:00 +20°C° 0.4 mm 4 mps 597 mmHg 47%
    20:00 +19°C° 0.4 mm 4 mps 597 mmHg 53%
    21:00 +18°C° 0.2 mm 3 mps 597 mmHg 57%
    22:00 +17°C° 0.2 mm 3 mps 597 mmHg 60%
    23:00 +17°C° 0.2 mm 3 mps 597 mmHg 63%

    24 May, Friday

    Time Temperature Precipitation Wind Pressure Humidity
    00:00 +16°C° 0.1 mm 3 mps 597 mmHg 65%
    01:00 +16°C° 0.1 mm 3 mps 596 mmHg 66%
    02:00 +14°C° 0.1 mm 3 mps 596 mmHg 68%
    03:00 +14°C° 0.1 mm 3 mps 596 mmHg 69%
    04:00 +15°C° 0.1 mm 2 mps 596 mmHg 71%
    05:00 +14°C° 0.1 mm 2 mps 595 mmHg 72%
    06:00 +15°C° 0.1 mm 2 mps 596 mmHg 68%
    07:00 +15°C° 0.1 mm 2 mps 596 mmHg 64%
    08:00 +16°C° 0.1 mm 2 mps 597 mmHg 60%
    09:00 +17°C° 0.1 mm 2 mps 597 mmHg 52%
    10:00 +19°C° 0.1 mm 2 mps 598 mmHg 44%
    11:00 +20°C° 0.1 mm 2 mps 598 mmHg 35%
    12:00 +21°C° 0 mm 2 mps 599 mmHg 32%
    13:00 +23°C° 0 mm 2 mps 599 mmHg 29%
    14:00 +24°C° 0 mm 2 mps 599 mmHg 26%
    15:00 +25°C° 0 mm 2 mps 599 mmHg 25%
    16:00 +25°C° 0 mm 2 mps 599 mmHg 25%
    17:00 +25°C° 0 mm 2 mps 599 mmHg 25%
    18:00 +24°C° 0.1 mm 3 mps 599 mmHg 30%
    19:00 +21°C° 0.1 mm 3 mps 599 mmHg 34%
    20:00 +20°C° 0.1 mm 4 mps 599 mmHg 39%
    21:00 +19°C° 0 mm 4 mps 599 mmHg 43%
    22:00 +18°C° 0 mm 3 mps 599 mmHg 46%
    23:00 +17°C° 0 mm 3 mps 599 mmHg 50%

    25 May, Saturday

    Time Temperature Precipitation Wind Pressure Humidity
    00:00 +17°C° 0 mm 2 mps 598 mmHg 51%
    01:00 +16°C° 0 mm 1 mps 598 mmHg 52%
    02:00 +16°C° 0 mm 1 mps 598 mmHg 53%
    03:00 +15°C° 0 mm 1 mps 597 mmHg 54%
    04:00 +15°C° 0 mm 1 mps 597 mmHg 54%
    05:00 +15°C° 0 mm 1 mps 597 mmHg 55%
    06:00 +15°C° 0 mm 1 mps 598 mmHg 52%
    07:00 +16°C° 0 mm 1 mps 598 mmHg 49%
    08:00 +18°C° 0 mm 1 mps 599 mmHg 45%
    09:00 +19°C° 0 mm 1 mps 599 mmHg 40%
    10:00 +20°C° 0 mm 1 mps 599 mmHg 35%
    11:00 +21°C° 0 mm 1 mps 599 mmHg 30%
    12:00 +22°C° 0 mm 1 mps 599 mmHg 27%
    13:00 +23°C° 0 mm 1 mps 599 mmHg 25%
    14:00 +24°C° 0 mm 1 mps 599 mmHg 22%
    15:00 +24°C° 0.1 mm 2 mps 599 mmHg 23%
    16:00 +24°C° 0.1 mm 2 mps 599 mmHg 24%
    17:00 +24°C° 0.1 mm 2 mps 598 mmHg 24%
    18:00 +22°C° 0.3 mm 3 mps 598 mmHg 28%
    19:00 +20°C° 0.3 mm 4 mps 598 mmHg 32%
    20:00 +19°C° 0.3 mm 5 mps 598 mmHg 35%
    21:00 +18°C° 0 mm 4 mps 598 mmHg 36%
    22:00 +18°C° 0 mm 4 mps 598 mmHg 37%
    23:00 +17°C° 0 mm 3 mps 598 mmHg 38%

    26 May, Sunday

    Time Temperature Precipitation Wind Pressure Humidity
    00:00 +16°C° 0 mm 3 mps 598 mmHg 40%
    01:00 +16°C° 0 mm 3 mps 597 mmHg 42%
    02:00 +14°C° 0 mm 3 mps 597 mmHg 43%
    03:00 +13°C° 0 mm 3 mps 597 mmHg 46%
    04:00 +14°C° 0 mm 2 mps 597 mmHg 48%
    05:00 +13°C° 0 mm 2 mps 596 mmHg 50%
    06:00 +13°C° 0 mm 2 mps 597 mmHg 46%
    07:00 +14°C° 0 mm 2 mps 597 mmHg 42%
    08:00 +14°C° 0 mm 2 mps 597 mmHg 38%
    09:00 +15°C° 0 mm 2 mps 598 mmHg 33%
    10:00 +16°C° 0 mm 2 mps 598 mmHg 29%
    11:00 +17°C° 0 mm 2 mps 598 mmHg 24%
    12:00 +18°C° 0 mm 3 mps 598 mmHg 22%
    13:00 +19°C° 0 mm 3 mps 598 mmHg 19%
    14:00 +20°C° 0 mm 3 mps 598 mmHg 17%
    15:00 +20°C° 0 mm 3 mps 598 mmHg 17%
    16:00 +20°C° 0 mm 4 mps 598 mmHg 18%
    17:00 +20°C° 0 mm 4 mps 598 mmHg 18%
    18:00 +19°C° 0 mm 3 mps 598 mmHg 20%
    19:00 +18°C° 0 mm 3 mps 598 mmHg 21%
    20:00 +17°C° 0 mm 2 mps 598 mmHg 23%
    21:00 +16°C° 0 mm 2 mps 598 mmHg 25%
    22:00 +16°C° 0 mm 1 mps 598 mmHg 26%
    23:00 +15°C° 0 mm 1 mps 598 mmHg 28%
    Show more